This is the latest recevied weather packets stored in our database for station/object DG7YEO-13. If no packets are shown the sender has not sent any weather packets the latest 10 day(s).
| Time | Temp. | Humidity | Pressure | Rain* | Wind** | Luminosity | Snow |
|---|---|---|---|---|---|---|---|
| 1787617025 | 14.44° C | 77% | 1015.9 hPa | 0 mm | - | - | - |
| 1787616126 | 14.44° C | 77% | 1016 hPa | 0 mm | - | - | - |
| 1787615225 | 15° C | 76% | 1016.1 hPa | 0 mm | - | - | - |
| 1787614325 | 15° C | 76% | 1016.3 hPa | 0 mm | - | - | - |
| 1787613425 | 15° C | 76% | 1016.6 hPa | 0 mm | - | - | - |
| 1787612525 | 15° C | 75% | 1016.5 hPa | 0 mm | - | - | - |
| 1787611625 | 15° C | 75% | 1016.5 hPa | 0 mm | - | - | - |
| 1787610725 | 15.56° C | 75% | 1016.6 hPa | 0 mm | - | - | - |
| 1787609825 | 15.56° C | 74% | 1016.8 hPa | 0 mm | - | - | - |
| 1787608925 | 15.56° C | 74% | 1016.8 hPa | 0 mm | - | - | - |
| 1787608024 | 15.56° C | 74% | 1017 hPa | 0 mm | - | - | - |
| 1787607125 | 15.56° C | 74% | 1017.2 hPa | 0 mm | - | - | - |
| 1787606225 | 15.56° C | 73% | 1017.1 hPa | 0 mm | - | - | - |
| 1787605325 | 15.56° C | 73% | 1017.3 hPa | 0 mm | - | - | - |
| 1787604425 | 16.11° C | 72% | 1017.5 hPa | 0 mm | - | - | - |
| 1787603525 | 16.11° C | 71% | 1017.5 hPa | 0 mm | - | - | - |
| 1787602625 | 16.67° C | 70% | 1017.6 hPa | 0 mm | - | - | - |
| 1787601725 | 16.67° C | 69% | 1017.6 hPa | 0 mm | - | - | - |
| 1787600825 | 17.22° C | 68% | 1017.6 hPa | 0 mm | - | - | - |
| 1787599925 | 17.22° C | 67% | 1017.6 hPa | 0 mm | - | - | - |
| 1787599028 | 17.78° C | 66% | 1017.6 hPa | 0 mm | - | - | - |
| 1787598125 | 18.33° C | 64% | 1017.7 hPa | 0 mm | - | - | - |
| 1787597224 | 18.33° C | 62% | 1017.6 hPa | 0 mm | - | - | - |
| 1787596325 | 18.89° C | 61% | 1017.7 hPa | 0 mm | - | - | - |
| 1787595425 | 19.44° C | 60% | 1017.7 hPa | 0 mm | - | - | - |
* Rain latest hour (hover to see other rain measurements)
** Current wind speed in m/s (hover to see current wind gust speed)